| time (UTC) | temp C | wind direction | speed KPH | gust KPH | rain 1hr cm | rain 24hr cm | rain mn cm | humidity % | barometer mb |
| 20260505215103 | 10 | 348 | 8.0 | 14.5 | 0.00 | 0.00 | 0.00 | 78 | 1014.1 |
| 20260505213603 | 10 | 339 | 4.8 | 8.0 | 0.00 | 0.00 | 0.00 | 78 | 1014.2 |
| 20260505211603 | 10 | 358 | 3.2 | 8.0 | 0.00 | 0.00 | 0.00 | 78 | 1014.2 |
| 20260505210104 | 10 | 358 | 4.8 | 9.7 | 0.00 | 0.00 | 0.00 | 77 | 1014.1 |
| 20260505203603 | 11 | 354 | 1.6 | 8.0 | 0.00 | 0.00 | 0.00 | 75 | 1014.1 |
| 20260505202603 | 11 | 334 | 4.8 | 11.3 | 0.00 | 0.00 | 0.00 | 75 | 1014.0 |
| 20260505202105 | 11 | 350 | 9.7 | 14.5 | 0.00 | 0.00 | 0.00 | 74 | 1014.0 |
| 20260505200603 | 11 | 347 | 8.0 | 11.3 | 0.00 | 0.00 | 0.00 | 74 | 1013.9 |
| 20260505195103 | 11 | 340 | 8.0 | 12.9 | 0.00 | 0.00 | 0.00 | 73 | 1013.7 |
| 20260505194603 | 11 | 0 | 4.8 | 9.7 | 0.00 | 0.00 | 0.00 | 73 | 1013.6 |
| 20260505192603 | 12 | 345 | 4.8 | 12.9 | 0.00 | 0.00 | 0.00 | 71 | 1013.5 |
| 20260505192103 | 12 | 355 | 8.0 | 12.9 | 0.00 | 0.00 | 0.00 | 71 | 1013.6 |
| 20260505191603 | 12 | 348 | 8.0 | 12.9 | 0.00 | 0.00 | 0.00 | 70 | 1013.5 |
| 20260505191103 | 12 | 1 | 12.9 | 19.3 | 0.00 | 0.00 | 0.00 | 69 | 1013.5 |
| 20260505185103 | 13 | 352 | 11.3 | 14.5 | 0.00 | 0.00 | 0.00 | 69 | 1013.3 |
| 20260505183603 | 13 | 342 | 11.3 | 20.9 | 0.00 | 0.00 | 0.00 | 68 | 1013.3 |
| 20260505183103 | 13 | 353 | 8.0 | 19.3 | 0.00 | 0.00 | 0.00 | 69 | 1013.2 |
| 20260505182603 | 13 | 341 | 9.7 | 19.3 | 0.00 | 0.00 | 0.00 | 68 | 1013.2 |
| 20260505180603 | 13 | 343 | 9.7 | 19.3 | 0.00 | 0.00 | 0.00 | 66 | 1013.2 |
| 20260505175603 | 14 | 342 | 9.7 | 20.9 | 0.00 | 0.00 | 0.00 | 65 | 1013.2 |
| 20260505174603 | 14 | 332 | 8.0 | 19.3 | 0.00 | 0.00 | 0.00 | 64 | 1013.1 |
| 20260505173104 | 14 | 1 | 12.9 | 20.9 | 0.00 | 0.00 | 0.00 | 62 | 1013.2 |
| 20260505172604 | 14 | 338 | 9.7 | 27.4 | 0.00 | 0.00 | 0.00 | 62 | 1013.1 |
| 20260505172103 | 14 | 2 | 8.0 | 16.1 | 0.00 | 0.00 | 0.00 | 62 | 1013.2 |
| 20260505170604 | 14 | 3 | 8.0 | 19.3 | 0.00 | 0.00 | 0.00 | 62 | 1013.2 |
| 20260505165103 | 15 | 356 | 8.0 | 19.3 | 0.00 | 0.00 | 0.00 | 62 | 1013.2 |
| 20260505164104 | 15 | 344 | 6.4 | 12.9 | 0.00 | 0.00 | 0.00 | 61 | 1013.3 |
| 20260505162603 | 15 | 354 | 11.3 | 27.4 | 0.00 | 0.00 | 0.00 | 60 | 1013.2 |
| 20260505161104 | 15 | 355 | 9.7 | 16.1 | 0.00 | 0.00 | 0.00 | 60 | 1013.1 |
| 20260505153104 | 15 | 350 | 8.0 | 19.3 | 0.00 | 0.00 | 0.00 | 58 | 1013.2 |
| 20260505152604 | 15 | 338 | 9.7 | 16.1 | 0.00 | 0.00 | 0.00 | 58 | 1013.2 |
| 20260505152103 | 15 | 351 | 14.5 | 20.9 | 0.00 | 0.00 | 0.00 | 57 | 1013.2 |
| 20260505151603 | 15 | 342 | 6.4 | 19.3 | 0.00 | 0.00 | 0.00 | 58 | 1013.2 |
| 20260505124103 | 14 | 349 | 9.7 | 19.3 | 0.00 | 0.00 | 0.00 | 65 | 1013.9 |
| 20260505123603 | 15 | 349 | 17.7 | 27.4 | 0.00 | 0.00 | 0.00 | 63 | 1013.8 |
| 20260505122603 | 14 | 5 | 9.7 | 19.3 | 0.00 | 0.00 | 0.00 | 65 | 1013.9 |
| 20260505121604 | 14 | 345 | 9.7 | 27.4 | 0.00 | 0.00 | 0.00 | 65 | 1013.9 |
| 20260505121103 | 14 | 355 | 14.5 | 19.3 | 0.00 | 0.00 | 0.00 | 64 | 1014.0 |
| 20260505120103 | 15 | 21 | 9.7 | 19.3 | 0.00 | 0.00 | 0.00 | 65 | 1013.9 |
| 20260505114604 | 15 | 353 | 12.9 | 25.7 | 0.00 | 0.00 | 0.00 | 64 | 1014.0 |
| 20260505113603 | 15 | 345 | 9.7 | 20.9 | 0.00 | 0.00 | 0.00 | 64 | 1014.0 |
| 20260505113104 | 15 | 350 | 11.3 | 22.5 | 0.00 | 0.00 | 0.00 | 62 | 1014.0 |
| 20260505111103 | 14 | 4 | 9.7 | 22.5 | 0.00 | 0.00 | 0.00 | 64 | 1014.2 |
| 20260505110604 | 14 | 6 | 8.0 | 19.3 | 0.00 | 0.00 | 0.00 | 64 | 1014.2 |
| 20260505102103 | 13 | 353 | 12.9 | 24.1 | 0.00 | 0.00 | 0.00 | 70 | 1014.4 |
| 20260505101603 | 13 | 344 | 11.3 | 20.9 | 0.00 | 0.00 | 0.00 | 69 | 1014.5 |
| 20260505095602 | 12 | 354 | 4.8 | 12.9 | 0.00 | 0.00 | 0.00 | 74 | 1014.7 |
| 20260505094103 | 12 | 2 | 9.7 | 22.5 | 0.00 | 0.00 | 0.00 | 74 | 1014.8 |
| 20260505092603 | 12 | 355 | 12.9 | 22.5 | 0.00 | 0.00 | 0.00 | 73 | 1014.8 |
| 20260505091103 | 11 | 355 | 8.0 | 16.1 | 0.00 | 0.00 | 0.00 | 75 | 1014.8 |
| 20260505085603 | 12 | 352 | 9.7 | 19.3 | 0.00 | 0.00 | 0.00 | 73 | 1014.7 |
| 20260505083603 | 11 | 3 | 6.4 | 19.3 | 0.00 | 0.00 | 0.00 | 76 | 1015.0 |
| 20260505082104 | 11 | 331 | 4.8 | 19.3 | 0.00 | 0.00 | 0.00 | 77 | 1014.9 |
| 20260505081103 | 11 | 353 | 6.4 | 19.3 | 0.00 | 0.00 | 0.00 | 80 | 1015.0 |
| 20260505080603 | 10 | 1 | 11.3 | 24.1 | 0.00 | 0.00 | 0.00 | 79 | 1015.1 |
| 20260505075603 | 10 | 2 | 8.0 | 14.5 | 0.00 | 0.00 | 0.00 | 82 | 1015.1 |
| 20260505074603 | 10 | 356 | 8.0 | 12.9 | 0.00 | 0.00 | 0.00 | 83 | 1015.1 |
| 20260505073603 | 10 | 358 | 9.7 | 16.1 | 0.00 | 0.00 | 0.00 | 85 | 1015.2 |
| 20260505073103 | 10 | 351 | 9.7 | 14.5 | 0.00 | 0.00 | 0.00 | 86 | 1015.2 |
| 20260505071603 | 9 | 3 | 8.0 | 16.1 | 0.00 | 0.00 | 0.00 | 88 | 1015.2 |
| 20260505071104 | 9 | 346 | 8.0 | 19.3 | 0.00 | 0.00 | 0.00 | 88 | 1015.2 |
| 20260505070104 | 8 | 3 | 12.9 | 25.7 | 0.00 | 0.00 | 0.00 | 90 | 1015.1 |
| 20260505065604 | 8 | 356 | 9.7 | 19.3 | 0.00 | 0.00 | 0.00 | 91 | 1015.2 |
| 20260505065104 | 8 | 357 | 9.7 | 16.1 | 0.00 | 0.00 | 0.00 | 91 | 1015.2 |
| 20260505064603 | 8 | 356 | 4.8 | 14.5 | 0.00 | 0.00 | 0.00 | 92 | 1015.1 |
| 20260505061603 | 8 | 346 | 4.8 | 8.0 | 0.00 | 0.00 | 0.00 | 95 | 1015.0 |
| 20260505060103 | 8 | 356 | 3.2 | 4.8 | 0.00 | 0.00 | 0.00 | 94 | 1015.0 |
| 20260505054605 | 8 | 346 | 4.8 | 9.7 | 0.00 | 0.00 | 0.00 | 93 | 1014.8 |
| 20260505054104 | 8 | 350 | 3.2 | 11.3 | 0.00 | 0.00 | 0.00 | 93 | 1014.7 |
| 20260505053104 | 8 | 9 | 1.6 | 4.8 | 0.00 | 0.00 | 0.00 | 94 | 1014.7 |
| 20260505052103 | 8 | 346 | 3.2 | 8.0 | 0.00 | 0.00 | 0.00 | 95 | 1014.6 |
| 20260505051605 | 8 | 14 | 0.0 | 3.2 | 0.00 | 0.00 | 0.00 | 95 | 1014.7 |
| 20260505051103 | 8 | 23 | 0.0 | 1.6 | 0.00 | 0.00 | 0.00 | 95 | 1014.6 |
| 20260505050603 | 8 | 25 | 0.0 | 1.6 | 0.00 | 0.00 | 0.00 | 95 | 1014.7 |
| 20260505050103 | 8 | 25 | 0.0 | 3.2 | 0.00 | 0.00 | 0.00 | 95 | 1014.7 |
| 20260505041103 | 8 | 43 | 0.0 | 1.6 | 0.00 | 0.00 | 0.00 | 95 | 1015.1 |
| 20260505035603 | 8 | 36 | 1.6 | 4.8 | 0.00 | 0.00 | 0.00 | 95 | 1015.1 |
| 20260505034103 | 8 | 334 | 1.6 | 4.8 | 0.00 | 0.00 | 0.00 | 94 | 1015.0 |
| 20260505033603 | 8 | 15 | 1.6 | 4.8 | 0.00 | 0.00 | 0.00 | 94 | 1015.0 |
| 20260505032604 | 8 | 9 | 3.2 | 8.0 | 0.00 | 0.00 | 0.00 | 94 | 1014.9 |
| 20260505031603 | 9 | 0 | 3.2 | 8.0 | 0.00 | 0.00 | 0.00 | 94 | 1014.9 |
| 20260505025104 | 10 | 347 | 3.2 | 4.8 | 0.00 | 0.00 | 0.00 | 93 | 1014.8 |
| 20260505024603 | 10 | 358 | 4.8 | 11.3 | 0.00 | 0.00 | 0.00 | 93 | 1014.8 |
| 20260505024103 | 10 | 335 | 4.8 | 11.3 | 0.00 | 0.00 | 0.00 | 92 | 1014.8 |
| 20260505023603 | 10 | 340 | 3.2 | 4.8 | 0.00 | 0.00 | 0.00 | 92 | 1014.7 |
| 20260505023103 | 10 | 355 | 4.8 | 4.8 | 0.00 | 0.00 | 0.00 | 91 | 1014.7 |
| 20260505022603 | 10 | 343 | 4.8 | 9.7 | 0.00 | 0.00 | 0.00 | 91 | 1014.8 |
| 20260505020604 | 10 | 358 | 1.6 | 4.8 | 0.00 | 0.00 | 0.00 | 91 | 1014.9 |
| 20260505015603 | 10 | 328 | 4.8 | 8.0 | 0.00 | 0.00 | 0.00 | 90 | 1015.1 |
| 20260505014104 | 11 | 317 | 1.6 | 4.8 | 0.00 | 0.00 | 0.00 | 90 | 1015.1 |
| 20260505013104 | 11 | 342 | 0.0 | 1.6 | 0.00 | 0.00 | 0.00 | 90 | 1015.1 |
| 20260505012104 | 11 | 22 | 0.0 | 1.6 | 0.00 | 0.00 | 0.00 | 90 | 1015.1 |
| 20260505004603 | 11 | 9 | 0.0 | 3.2 | 0.00 | 0.00 | 0.00 | 90 | 1015.4 |
| 20260505004104 | 11 | 359 | 1.6 | 3.2 | 0.00 | 0.00 | 0.00 | 89 | 1015.5 |
| 20260505003603 | 11 | 354 | 1.6 | 4.8 | 0.00 | 0.00 | 0.00 | 90 | 1015.5 |
| 20260505002104 | 11 | 357 | 1.6 | 4.8 | 0.00 | 0.00 | 0.00 | 89 | 1015.5 |
| 20260505001603 | 11 | 353 | 1.6 | 4.8 | 0.00 | 0.00 | 0.00 | 89 | 1015.5 |
| 20260505001103 | 11 | 2 | 1.6 | 3.2 | 0.00 | 0.00 | 0.00 | 89 | 1015.6 |
| 20260505000603 | 11 | 345 | 1.6 | 4.8 | 0.00 | 0.00 | 0.00 | 89 | 1015.6 |
| 20260505000103 | 11 | 349 | 3.2 | 4.8 | 0.00 | 0.00 | 0.00 | 89 | 1015.6 |
| 20260504235603 | 11 | 343 | 1.6 | 8.0 | 0.00 | 0.00 | 0.00 | 89 | 1015.6 |
| 20260504234603 | 11 | 350 | 0.0 | 8.0 | 0.00 | 0.00 | 0.00 | 89 | 1015.6 |
| 20260504233604 | 11 | 348 | 3.2 | 11.3 | 0.00 | 0.00 | 0.00 | 88 | 1015.6 |
| 20260504233103 | 11 | 353 | 3.2 | 9.7 | 0.00 | 0.00 | 0.00 | 88 | 1015.7 |
| 20260504232603 | 11 | 14 | 6.4 | 12.9 | 0.00 | 0.00 | 0.00 | 87 | 1015.6 |
| 20260504232102 | 11 | 358 | 4.8 | 9.7 | 0.00 | 0.00 | 0.00 | 88 | 1015.6 |
| 20260504231104 | 11 | 348 | 1.6 | 4.8 | 0.00 | 0.00 | 0.00 | 88 | 1015.6 |
| 20260504230604 | 11 | 352 | 3.2 | 11.3 | 0.00 | 0.00 | 0.00 | 88 | 1015.5 |
| 20260504224603 | 12 | 344 | 4.8 | 8.0 | 0.00 | 0.00 | 0.00 | 88 | 1015.7 |
| 20260504224104 | 12 | 325 | 1.6 | 4.8 | 0.00 | 0.00 | 0.00 | 88 | 1015.7 |
| 20260504222603 | 12 | 350 | 1.6 | 4.8 | 0.00 | 0.00 | 0.00 | 88 | 1015.8 |
| 20260504222103 | 12 | 347 | 1.6 | 3.2 | 0.00 | 0.00 | 0.00 | 88 | 1015.9 |